| time (UTC) | temp C | wind direction | speed KPH | gust KPH | rain 1hr cm | rain 24hr cm | rain mn cm | humidity % | barometer mb |
| 20260505035827 | 23 | 186 | 4.8 | 12.9 | 0.00 | 0.00 | 0.00 | 75 | 1011.2 |
| 20260505034826 | 23 | 189 | 4.8 | 12.9 | 0.00 | 0.00 | 0.00 | 75 | 1011.4 |
| 20260505033826 | 23 | 204 | 6.4 | 14.5 | 0.00 | 0.00 | 0.00 | 75 | 1011.4 |
| 20260505032826 | 24 | 132 | 3.2 | 11.3 | 0.00 | 0.00 | 0.00 | 74 | 1011.3 |
| 20260505031826 | 24 | 159 | 0.0 | 14.5 | 0.00 | 0.00 | 0.00 | 74 | 1011.5 |
| 20260505030826 | 24 | 66 | 4.8 | 16.1 | 0.00 | 0.00 | 0.00 | 73 | 1011.4 |
| 20260505025826 | 24 | 208 | 4.8 | 16.1 | 0.00 | 0.00 | 0.00 | 73 | 1011.5 |
| 20260505024826 | 25 | 140 | 3.2 | 16.1 | 0.00 | 0.00 | 0.00 | 72 | 1011.4 |
| 20260505023826 | 25 | 151 | 9.7 | 19.3 | 0.00 | 0.00 | 0.00 | 72 | 1011.2 |
| 20260505022826 | 25 | 154 | 3.2 | 16.1 | 0.00 | 0.00 | 0.00 | 71 | 1011.4 |
| 20260505021826 | 25 | 137 | 6.4 | 12.9 | 0.00 | 0.00 | 0.00 | 71 | 1011.3 |
| 20260505020826 | 25 | 121 | 3.2 | 9.7 | 0.00 | 0.00 | 0.00 | 71 | 1011.5 |
| 20260505015825 | 25 | 161 | 0.0 | 4.8 | 0.00 | 0.00 | 0.00 | 70 | 1011.4 |
| 20260505014825 | 25 | 138 | 1.6 | 3.2 | 0.00 | 0.00 | 0.00 | 70 | 1011.3 |
| 20260505013825 | 25 | 200 | 0.0 | 3.2 | 0.00 | 0.00 | 0.00 | 69 | 1011.1 |
| 20260505012825 | 26 | 234 | 0.0 | 8.0 | 0.00 | 0.00 | 0.00 | 69 | 1010.9 |
| 20260505011825 | 26 | 132 | 1.6 | 8.0 | 0.00 | 0.00 | 0.00 | 68 | 1010.7 |
| 20260505010825 | 26 | 172 | 1.6 | 11.3 | 0.00 | 0.00 | 0.00 | 67 | 1010.7 |
| 20260505005825 | 26 | 159 | 3.2 | 14.5 | 0.00 | 0.00 | 0.00 | 67 | 1010.6 |
| 20260505004825 | 26 | 149 | 3.2 | 12.9 | 0.00 | 0.00 | 0.00 | 66 | 1010.9 |
| 20260505003825 | 26 | 207 | 0.0 | 11.3 | 0.00 | 0.00 | 0.00 | 66 | 1011.0 |
| 20260505002825 | 27 | 109 | 3.2 | 14.5 | 0.00 | 0.00 | 0.00 | 65 | 1010.9 |
| 20260505001825 | 27 | 188 | 3.2 | 16.1 | 0.00 | 0.00 | 0.00 | 64 | 1010.9 |
| 20260505000825 | 27 | 158 | 9.7 | 12.9 | 0.00 | 0.00 | 0.00 | 63 | 1010.9 |
| 20260504235825 | 27 | 119 | 12.9 | 14.5 | 0.00 | 0.00 | 0.00 | 62 | 1010.9 |
| 20260504234825 | 28 | 252 | 3.2 | 16.1 | 0.00 | 0.00 | 0.00 | 61 | 1010.9 |
| 20260504233825 | 28 | 184 | 1.6 | 9.7 | 0.00 | 0.00 | 0.00 | 60 | 1011.0 |
| 20260504232824 | 28 | 124 | 1.6 | 20.9 | 0.00 | 0.00 | 0.00 | 61 | 1011.0 |
| 20260504231824 | 28 | 136 | 4.8 | 16.1 | 0.00 | 0.00 | 0.00 | 59 | 1011.1 |
| 20260504230824 | 29 | 123 | 6.4 | 12.9 | 0.00 | 0.00 | 0.00 | 58 | 1011.3 |
| 20260504225824 | 29 | 94 | 1.6 | 12.9 | 0.00 | 0.00 | 0.00 | 59 | 1011.4 |
| 20260504224824 | 29 | 189 | 1.6 | 8.0 | 0.00 | 0.00 | 0.00 | 59 | 1011.5 |
| 20260504223824 | 29 | 146 | 0.0 | 12.9 | 0.00 | 0.00 | 0.00 | 58 | 1011.5 |
| 20260504222824 | 29 | 98 | 0.0 | 9.7 | 0.00 | 0.00 | 0.00 | 58 | 1011.9 |
| 20260504221824 | 30 | 277 | 0.0 | 14.5 | 0.00 | 0.00 | 0.00 | 56 | 1011.8 |
| 20260504220824 | 30 | 244 | 0.0 | 14.5 | 0.00 | 0.00 | 0.00 | 55 | 1012.0 |
| 20260504215824 | 30 | 80 | 12.9 | 14.5 | 0.00 | 0.00 | 0.00 | 56 | 1012.0 |
| 20260504214824 | 30 | 158 | 8.0 | 14.5 | 0.00 | 0.00 | 0.00 | 54 | 1012.1 |
| 20260504213823 | 31 | 57 | 3.2 | 16.1 | 0.00 | 0.00 | 0.00 | 54 | 1012.2 |
| 20260504212823 | 31 | 135 | 11.3 | 19.3 | 0.00 | 0.00 | 0.00 | 54 | 1012.3 |
| 20260504211823 | 31 | 163 | 8.0 | 14.5 | 0.00 | 0.00 | 0.00 | 54 | 1012.5 |
| 20260504210824 | 31 | 199 | 1.6 | 12.9 | 0.00 | 0.00 | 0.00 | 55 | 1012.5 |
| 20260504205823 | 31 | 128 | 12.9 | 16.1 | 0.00 | 0.00 | 0.00 | 55 | 1012.7 |
| 20260504204824 | 30 | 111 | 1.6 | 14.5 | 0.00 | 0.00 | 0.00 | 56 | 1012.6 |
| 20260504203823 | 30 | 140 | 4.8 | 14.5 | 0.00 | 0.00 | 0.00 | 58 | 1013.0 |
| 20260504202823 | 29 | 194 | 1.6 | 9.7 | 0.00 | 0.00 | 0.00 | 58 | 1013.2 |
| 20260504201823 | 29 | 195 | 1.6 | 14.5 | 0.00 | 0.00 | 0.00 | 58 | 1013.4 |
| 20260504200823 | 29 | 188 | 3.2 | 8.0 | 0.00 | 0.00 | 0.00 | 56 | 1013.7 |
| 20260504195823 | 29 | 125 | 3.2 | 12.9 | 0.00 | 0.00 | 0.00 | 59 | 1013.7 |
| 20260504194823 | 28 | 267 | 0.0 | 11.3 | 0.00 | 0.00 | 0.00 | 59 | 1013.9 |
| 20260504193853 | 28 | 134 | 1.6 | 12.9 | 0.00 | 0.00 | 0.00 | 60 | 1014.0 |
| 20260504192823 | 28 | 176 | 3.2 | 19.3 | 0.00 | 0.00 | 0.00 | 60 | 1014.3 |
| 20260504191822 | 27 | 153 | 1.6 | 14.5 | 0.00 | 0.00 | 0.00 | 61 | 1014.3 |
| 20260504190823 | 27 | 225 | 0.0 | 11.3 | 0.00 | 0.00 | 0.00 | 61 | 1014.4 |
| 20260504185822 | 27 | 223 | 1.6 | 11.3 | 0.00 | 0.00 | 0.00 | 63 | 1014.6 |
| 20260504184822 | 27 | 138 | 4.8 | 9.7 | 0.00 | 0.00 | 0.00 | 62 | 1014.9 |
| 20260504183822 | 27 | 285 | 6.4 | 16.1 | 0.00 | 0.00 | 0.00 | 62 | 1014.9 |
| 20260504182822 | 27 | 145 | 6.4 | 16.1 | 0.00 | 0.00 | 0.00 | 61 | 1014.9 |
| 20260504181822 | 26 | 213 | 0.0 | 17.7 | 0.00 | 0.00 | 0.00 | 63 | 1015.1 |
| 20260504180822 | 26 | 113 | 9.7 | 12.9 | 0.00 | 0.00 | 0.00 | 64 | 1015.2 |
| 20260504175822 | 26 | 126 | 12.9 | 19.3 | 0.00 | 0.00 | 0.00 | 63 | 1015.3 |
| 20260504174822 | 26 | 107 | 11.3 | 14.5 | 0.00 | 0.00 | 0.00 | 65 | 1015.4 |
| 20260504173821 | 25 | 165 | 3.2 | 9.7 | 0.00 | 0.00 | 0.00 | 64 | 1015.5 |
| 20260504172821 | 25 | 185 | 1.6 | 12.9 | 0.00 | 0.00 | 0.00 | 66 | 1015.6 |
| 20260504171821 | 25 | 132 | 1.6 | 8.0 | 0.00 | 0.00 | 0.00 | 64 | 1015.8 |
| 20260504170822 | 25 | 235 | 3.2 | 16.1 | 0.00 | 0.00 | 0.00 | 66 | 1016.1 |
| 20260504150820 | 21 | 81 | 6.4 | 17.7 | 0.00 | 0.00 | 0.00 | 73 | 1016.9 |
| 20260504140820 | 18 | 136 | 0.0 | 16.1 | 0.00 | 0.00 | 0.00 | 74 | 1017.0 |
| 20260504130819 | 17 | 151 | 4.8 | 9.7 | 0.00 | 0.00 | 0.00 | 75 | 1016.8 |
| 20260504081817 | 18 | 153 | 3.2 | 6.4 | 0.00 | 0.00 | 0.00 | 70 | 1017.2 |
| 20260504080817 | 18 | 184 | 0.0 | 4.8 | 0.00 | 0.00 | 0.00 | 69 | 1017.3 |
| 20260504045845 | 20 | 154 | 0.0 | 4.8 | 0.00 | 0.00 | 0.00 | 62 | 1019.1 |
| 20260504044846 | 20 | 182 | 0.0 | 6.4 | 0.00 | 0.00 | 0.00 | 61 | 1019.2 |
| 20260504043846 | 21 | 179 | 0.0 | 0.0 | 0.00 | 0.00 | 0.00 | 61 | 1019.3 |
| 20260504042830 | 21 | 227 | 0.0 | 3.2 | 0.00 | 0.00 | 0.00 | 61 | 1019.1 |
| 20260504041831 | 21 | 222 | 0.0 | 3.2 | 0.00 | 0.00 | 0.00 | 61 | 1019.1 |
| 20260504040830 | 21 | 101 | 0.0 | 4.8 | 0.00 | 0.00 | 0.00 | 60 | 1019.1 |